Time,TemperatureF,DewpointF,PressureIn,WindDirection,WindDirectionDegrees,WindSpeedMPH,WindSpeedGustMPH,Humidity,HourlyPrecipIn,Conditions,Clouds,dailyrainin,SolarRadiationWatts/m^2,SoftwareType,DateUTC
2013-01-14 00:03:00,34.2,29.3,30.50,SW,223,0.0,1.0,82,0.00,,,0.00,0,Wunderground v.1.15,2013-01-14 08:03:00,
2013-01-14 00:08:00,34.1,28.9,30.51,SW,223,0.0,2.0,81,0.00,,,0.00,0,Wunderground v.1.15,2013-01-14 08:08:00,
2013-01-14 00:13:00,34.1,28.6,30.51,SW,223,1.0,3.0,80,0.00,,,0.00,0,Wunderground v.1.15,2013-01-14 08:13:00,
2013-01-14 00:18:00,34.1,28.3,30.50,SW,223,1.0,3.0,79,0.00,,,0.00,0,Wunderground v.1.15,2013-01-14 08:18:00,
2013-01-14 00:23:00,34.1,28.3,30.50,SW,223,0.0,2.0,79,0.00,,,0.00,0,Wunderground v.1.15,2013-01-14 08:23:00,
2013-01-14 00:28:00,34.2,28.4,30.51,SW,223,0.0,2.0,79,0.00,,,0.00,0,Wunderground v.1.15,2013-01-14 08:28:00,
2013-01-14 00:33:00,34.2,28.4,30.51,SW,223,0.0,0.0,79,0.00,,,0.00,0,Wunderground v.1.15,2013-01-14 08:33:00,
2013-01-14 00:38:00,34.2,28.7,30.51,SW,223,0.0,0.0,80,0.00,,,0.00,0,Wunderground v.1.15,2013-01-14 08:38:00,
2013-01-14 00:43:00,34.2,28.7,30.50,SW,223,0.0,1.0,80,0.00,,,0.00,0,Wunderground v.1.15,2013-01-14 08:43:00,
2013-01-14 00:48:00,34.2,28.7,30.50,SW,223,0.0,1.0,80,0.00,,,0.00,0,Wunderground v.1.15,2013-01-14 08:48:00,
2013-01-14 00:53:00,34.2,28.7,30.50,SW,223,0.0,0.0,80,0.00,,,0.00,0,Wunderground v.1.15,2013-01-14 08:53:00,
2013-01-14 00:58:00,34.2,28.7,30.50,SW,223,0.0,0.0,80,0.00,,,0.00,0,Wunderground v.1.15,2013-01-14 08:58:00,
2013-01-14 01:03:00,34.2,28.7,30.50,SW,223,0.0,0.0,80,0.00,,,0.00,0,Wunderground v.1.15,2013-01-14 09:03:00,
2013-01-14 01:08:00,34.2,28.7,30.51,SW,223,0.0,0.0,80,0.00,,,0.00,0,Wunderground v.1.15,2013-01-14 09:08:00,
2013-01-14 01:13:00,34.2,28.7,30.51,SW,223,1.0,1.0,80,0.00,,,0.00,0,Wunderground v.1.15,2013-01-14 09:13:00,
2013-01-14 01:18:00,34.2,28.7,30.51,SW,223,0.0,1.0,80,0.00,,,0.00,0,Wunderground v.1.15,2013-01-14 09:18:00,
2013-01-14 01:23:00,34.2,28.7,30.51,SW,223,0.0,0.0,80,0.00,,,0.00,0,Wunderground v.1.15,2013-01-14 09:23:00,
2013-01-14 01:28:00,34.2,28.7,30.51,SW,223,0.0,0.0,80,0.00,,,0.00,0,Wunderground v.1.15,2013-01-14 09:28:00,
2013-01-14 01:34:00,34.3,28.5,30.51,SW,223,0.0,1.0,79,0.00,,,0.00,0,Wunderground v.1.15,2013-01-14 09:34:00,
2013-01-14 01:38:00,34.3,28.8,30.51,SW,221,1.0,2.0,80,0.00,,,0.00,0,Wunderground v.1.15,2013-01-14 09:38:00,
2013-01-14 01:44:00,34.2,28.4,30.51,SSW,206,0.0,2.0,79,0.00,,,0.00,0,Wunderground v.1.15,2013-01-14 09:44:00,
2013-01-14 01:48:00,34.1,28.6,30.51,SSW,203,0.0,2.0,80,0.00,,,0.00,0,Wunderground v.1.15,2013-01-14 09:48:00,
2013-01-14 01:53:00,34.1,28.6,30.51,SW,215,1.0,3.0,80,0.00,,,0.00,0,Wunderground v.1.15,2013-01-14 09:53:00,
2013-01-14 01:58:00,34.1,28.3,30.51,SSW,198,0.0,3.0,79,0.00,,,0.00,0,Wunderground v.1.15,2013-01-14 09:58:00,
2013-01-14 02:03:00,34.0,28.2,30.52,SSW,198,0.0,2.0,79,0.00,,,0.00,0,Wunderground v.1.15,2013-01-14 10:03:00,
2013-01-14 02:08:00,33.9,28.1,30.51,SSW,198,0.0,2.0,79,0.00,,,0.00,0,Wunderground v.1.15,2013-01-14 10:08:00,
2013-01-14 02:13:00,33.9,27.8,30.52,SSW,195,0.0,2.0,78,0.00,,,0.00,0,Wunderground v.1.15,2013-01-14 10:13:00,
2013-01-14 02:18:00,33.9,28.1,30.51,SSW,195,1.0,2.0,79,0.00,,,0.00,0,Wunderground v.1.15,2013-01-14 10:18:00,
2013-01-14 02:23:00,33.9,27.8,30.52,SSW,195,2.0,2.0,78,0.00,,,0.00,0,Wunderground v.1.15,2013-01-14 10:23:00,
2013-01-14 02:28:00,33.9,28.1,30.52,SSW,194,1.0,2.0,79,0.00,,,0.00,0,Wunderground v.1.15,2013-01-14 10:28:00,
2013-01-14 02:33:00,33.9,28.4,30.51,SSW,192,1.0,2.0,80,0.00,,,0.00,0,Wunderground v.1.15,2013-01-14 10:33:00,
2013-01-14 02:38:00,34.0,28.8,30.51,SW,218,0.0,3.0,81,0.00,,,0.00,0,Wunderground v.1.15,2013-01-14 10:38:00,
2013-01-14 02:43:00,34.1,28.9,30.51,SW,222,2.0,3.0,81,0.00,,,0.00,0,Wunderground v.1.15,2013-01-14 10:43:00,
2013-01-14 02:48:00,34.1,29.2,30.51,SW,222,1.0,3.0,82,0.00,,,0.00,0,Wunderground v.1.15,2013-01-14 10:48:00,
2013-01-14 02:53:00,34.2,29.3,30.52,SW,222,0.0,2.0,82,0.00,,,0.00,0,Wunderground v.1.15,2013-01-14 10:53:00,
2013-01-14 02:58:00,34.3,29.7,30.52,SW,222,0.0,2.0,83,0.00,,,0.00,0,Wunderground v.1.15,2013-01-14 10:58:00,
2013-01-14 03:03:00,34.3,29.7,30.52,SW,222,1.0,3.0,83,0.00,,,0.00,0,Wunderground v.1.15,2013-01-14 11:03:00,
2013-01-14 03:08:00,34.3,29.7,30.52,SW,221,0.0,3.0,83,0.00,,,0.00,0,Wunderground v.1.15,2013-01-14 11:08:00,
2013-01-14 03:13:00,34.3,29.7,30.52,SSW,207,1.0,2.0,83,0.00,,,0.00,0,Wunderground v.1.15,2013-01-14 11:13:00,
2013-01-14 03:18:00,34.2,29.6,30.52,SSW,201,1.0,2.0,83,0.00,,,0.00,0,Wunderground v.1.15,2013-01-14 11:18:00,
2013-01-14 03:23:00,34.2,29.6,30.51,South,191,0.0,4.0,83,0.00,,,0.00,0,Wunderground v.1.15,2013-01-14 11:23:00,
2013-01-14 03:28:00,34.2,29.6,30.52,South,190,2.0,4.0,83,0.00,,,0.00,0,Wunderground v.1.15,2013-01-14 11:28:00,
2013-01-14 03:33:00,34.2,29.9,30.51,South,191,1.0,3.0,84,0.00,,,0.00,0,Wunderground v.1.15,2013-01-14 11:33:00,
2013-01-14 03:38:00,34.2,29.9,30.52,SW,221,0.0,3.0,84,0.00,,,0.00,0,Wunderground v.1.15,2013-01-14 11:38:00,
2013-01-14 03:43:00,34.2,29.9,30.52,SW,221,0.0,1.0,84,0.00,,,0.00,0,Wunderground v.1.15,2013-01-14 11:43:00,
2013-01-14 03:48:00,34.2,29.6,30.51,SSW,198,0.0,3.0,83,0.00,,,0.00,0,Wunderground v.1.15,2013-01-14 11:48:00,
2013-01-14 03:53:00,34.2,29.6,30.52,SSW,207,0.0,4.0,83,0.00,,,0.00,0,Wunderground v.1.15,2013-01-14 11:53:00,
2013-01-14 03:58:00,34.2,29.6,30.51,SW,222,3.0,4.0,83,0.00,,,0.00,0,Wunderground v.1.15,2013-01-14 11:58:00,
2013-01-14 04:03:00,34.3,30.0,30.51,SW,214,1.0,5.0,84,0.00,,,0.00,0,Wunderground v.1.15,2013-01-14 12:03:00,
2013-01-14 04:08:00,34.3,30.0,30.51,SSW,201,2.0,5.0,84,0.00,,,0.00,0,Wunderground v.1.15,2013-01-14 12:08:00,
2013-01-14 04:13:00,34.3,30.0,30.51,WSW,247,3.0,3.0,84,0.00,,,0.00,0,Wunderground v.1.15,2013-01-14 12:13:00,
2013-01-14 04:18:00,34.4,30.1,30.51,WSW,245,3.0,5.0,84,0.00,,,0.00,0,Wunderground v.1.15,2013-01-14 12:18:00,
2013-01-14 04:23:00,34.4,30.1,30.51,WSW,246,2.0,3.0,84,0.00,,,0.00,0,Wunderground v.1.15,2013-01-14 12:23:00,
2013-01-14 04:28:00,34.4,30.1,30.51,WSW,246,2.0,4.0,84,0.00,,,0.00,0,Wunderground v.1.15,2013-01-14 12:28:00,
2013-01-14 04:33:00,34.4,30.1,30.51,WSW,244,0.0,2.0,84,0.00,,,0.00,0,Wunderground v.1.15,2013-01-14 12:33:00,
2013-01-14 04:38:00,34.4,30.1,30.51,SW,229,0.0,2.0,84,0.00,,,0.00,0,Wunderground v.1.15,2013-01-14 12:38:00,
2013-01-14 04:43:00,34.4,30.1,30.51,SSW,208,0.0,2.0,84,0.00,,,0.00,0,Wunderground v.1.15,2013-01-14 12:43:00,
2013-01-14 04:48:00,34.4,30.1,30.51,SSW,208,0.0,2.0,84,0.00,,,0.00,0,Wunderground v.1.15,2013-01-14 12:48:00,
2013-01-14 04:53:00,34.4,30.1,30.51,SSW,208,0.0,2.0,84,0.00,,,0.00,0,Wunderground v.1.15,2013-01-14 12:53:00,
2013-01-14 04:58:00,34.4,30.1,30.51,SSW,206,0.0,2.0,84,0.00,,,0.00,0,Wunderground v.1.15,2013-01-14 12:58:00,
2013-01-14 05:03:00,34.4,30.1,30.51,SSW,205,0.0,3.0,84,0.00,,,0.00,0,Wunderground v.1.15,2013-01-14 13:03:00,
2013-01-14 05:08:00,34.4,30.1,30.51,SSW,207,1.0,3.0,84,0.00,,,0.00,0,Wunderground v.1.15,2013-01-14 13:08:00,
2013-01-14 05:13:00,34.4,30.1,30.51,SW,228,1.0,3.0,84,0.00,,,0.00,0,Wunderground v.1.15,2013-01-14 13:13:00,
2013-01-14 05:18:00,34.4,30.1,30.51,SW,229,1.0,3.0,84,0.00,,,0.00,0,Wunderground v.1.15,2013-01-14 13:18:00,
2013-01-14 05:23:00,34.4,29.8,30.51,SW,229,1.0,2.0,83,0.00,,,0.00,0,Wunderground v.1.15,2013-01-14 13:23:00,
2013-01-14 05:28:00,34.5,29.9,30.51,SW,229,0.0,2.0,83,0.00,,,0.00,0,Wunderground v.1.15,2013-01-14 13:28:00,
2013-01-14 05:33:00,34.4,29.5,30.51,SW,229,1.0,2.0,82,0.00,,,0.00,0,Wunderground v.1.15,2013-01-14 13:33:00,
2013-01-14 05:38:00,34.5,29.3,30.51,SW,229,0.0,2.0,81,0.00,,,0.00,0,Wunderground v.1.15,2013-01-14 13:38:00,
2013-01-14 05:43:00,34.5,29.3,30.51,SW,229,0.0,1.0,81,0.00,,,0.00,0,Wunderground v.1.15,2013-01-14 13:43:00,
2013-01-14 05:48:00,34.6,29.4,30.51,SW,229,1.0,2.0,81,0.00,,,0.00,0,Wunderground v.1.15,2013-01-14 13:48:00,
2013-01-14 05:53:00,34.7,29.5,30.51,SW,229,0.0,1.0,81,0.00,,,0.00,0,Wunderground v.1.15,2013-01-14 13:53:00,
2013-01-14 05:58:00,34.7,29.5,30.51,SW,229,0.0,1.0,81,0.00,,,0.00,0,Wunderground v.1.15,2013-01-14 13:58:00,
2013-01-14 06:03:00,34.8,29.6,30.51,SW,229,0.0,1.0,81,0.00,,,0.00,0,Wunderground v.1.15,2013-01-14 14:03:00,
2013-01-14 06:08:00,34.8,29.3,30.52,SW,229,0.0,1.0,80,0.00,,,0.00,0,Wunderground v.1.15,2013-01-14 14:08:00,
2013-01-14 06:13:00,34.9,29.4,30.51,SW,229,1.0,2.0,80,0.00,,,0.00,0,Wunderground v.1.15,2013-01-14 14:13:00,
2013-01-14 06:18:00,34.9,29.4,30.52,SW,229,0.0,2.0,80,0.00,,,0.00,0,Wunderground v.1.15,2013-01-14 14:18:00,
2013-01-14 06:23:00,34.9,29.0,30.52,SW,229,0.0,1.0,79,0.00,,,0.00,0,Wunderground v.1.15,2013-01-14 14:23:00,
2013-01-14 06:28:00,34.9,29.0,30.52,SW,229,0.0,2.0,79,0.00,,,0.00,0,Wunderground v.1.15,2013-01-14 14:28:00,
2013-01-14 06:33:00,35.0,29.1,30.51,SW,229,0.0,2.0,79,0.00,,,0.00,0,Wunderground v.1.15,2013-01-14 14:33:00,
2013-01-14 06:38:00,35.0,29.5,30.51,SW,229,0.0,2.0,80,0.00,,,0.00,0,Wunderground v.1.15,2013-01-14 14:38:00,
2013-01-14 06:43:00,35.0,29.8,30.51,SW,229,2.0,3.0,81,0.00,,,0.00,0,Wunderground v.1.15,2013-01-14 14:43:00,
2013-01-14 06:48:00,35.1,29.9,30.51,SW,232,3.0,6.0,81,0.00,,,0.00,0,Wunderground v.1.15,2013-01-14 14:48:00,
2013-01-14 06:53:00,35.1,30.2,30.51,WSW,237,1.0,3.0,82,0.00,,,0.00,0,Wunderground v.1.15,2013-01-14 14:53:00,
2013-01-14 06:58:00,35.1,30.5,30.52,WSW,237,0.0,3.0,83,0.00,,,0.00,0,Wunderground v.1.15,2013-01-14 14:58:00,
2013-01-14 07:03:00,35.2,30.6,30.51,WSW,242,2.0,3.0,83,0.00,,,0.00,0,Wunderground v.1.15,2013-01-14 15:03:00,
2013-01-14 07:08:00,35.2,30.9,30.51,WSW,246,2.0,3.0,84,0.00,,,0.00,0,Wunderground v.1.15,2013-01-14 15:08:00,
2013-01-14 07:13:00,35.1,30.8,30.51,WSW,245,0.0,4.0,84,0.00,,,0.00,0,Wunderground v.1.15,2013-01-14 15:13:00,
2013-01-14 07:18:00,35.0,30.7,30.52,WSW,245,0.0,4.0,84,0.00,,,0.00,0,Wunderground v.1.15,2013-01-14 15:18:00,
2013-01-14 07:23:00,35.0,30.4,30.52,WSW,245,0.0,1.0,83,0.00,,,0.00,0,Wunderground v.1.15,2013-01-14 15:23:00,
2013-01-14 07:28:00,34.9,30.3,30.52,WSW,245,0.0,1.0,83,0.00,,,0.00,0,Wunderground v.1.15,2013-01-14 15:28:00,
2013-01-14 07:33:00,34.8,30.2,30.52,WSW,245,0.0,1.0,83,0.00,,,0.00,0,Wunderground v.1.15,2013-01-14 15:33:00,
2013-01-14 07:38:00,34.7,30.1,30.52,WSW,245,0.0,1.0,83,0.00,,,0.00,0,Wunderground v.1.15,2013-01-14 15:38:00,
2013-01-14 07:43:00,34.6,30.3,30.52,WSW,244,0.0,2.0,84,0.00,,,0.00,0,Wunderground v.1.15,2013-01-14 15:43:00,
2013-01-14 07:48:00,34.6,30.3,30.52,WSW,242,2.0,2.0,84,0.00,,,0.00,0,Wunderground v.1.15,2013-01-14 15:48:00,
2013-01-14 07:53:00,34.6,30.3,30.52,WSW,241,2.0,3.0,84,0.00,,,0.00,0,Wunderground v.1.15,2013-01-14 15:53:00,
2013-01-14 07:58:00,34.6,30.3,30.52,SW,215,3.0,3.0,84,0.00,,,0.00,0,Wunderground v.1.15,2013-01-14 15:58:00,
2013-01-14 08:03:00,34.5,30.2,30.52,SSW,205,1.0,2.0,84,0.00,,,0.00,0,Wunderground v.1.15,2013-01-14 16:03:00,
2013-01-14 08:08:00,34.6,30.3,30.52,WSW,241,2.0,4.0,84,0.00,,,0.00,5,Wunderground v.1.15,2013-01-14 16:08:00,
2013-01-14 08:13:00,34.7,30.4,30.52,WSW,248,3.0,4.0,84,0.00,,,0.00,7,Wunderground v.1.15,2013-01-14 16:13:00,
2013-01-14 08:18:00,34.8,30.8,30.53,West,261,2.0,5.0,85,0.00,,,0.00,11,Wunderground v.1.15,2013-01-14 16:18:00,
2013-01-14 08:23:00,34.8,30.5,30.52,WSW,257,3.0,6.0,84,0.00,,,0.00,14,Wunderground v.1.15,2013-01-14 16:23:00,
2013-01-14 08:28:00,34.9,30.6,30.53,WSW,245,2.0,6.0,84,0.00,,,0.00,16,Wunderground v.1.15,2013-01-14 16:28:00,
2013-01-14 08:33:00,35.0,30.7,30.52,West,260,3.0,5.0,84,0.00,,,0.00,18,Wunderground v.1.15,2013-01-14 16:33:00,
2013-01-14 08:38:00,35.0,30.7,30.52,WSW,249,3.0,7.0,84,0.00,,,0.00,18,Wunderground v.1.15,2013-01-14 16:38:00,
2013-01-14 08:43:00,35.0,30.7,30.52,WSW,238,2.0,5.0,84,0.00,,,0.00,18,Wunderground v.1.15,2013-01-14 16:43:00,
2013-01-14 08:48:00,35.1,30.8,30.52,SSW,210,1.0,5.0,84,0.00,,,0.00,19,Wunderground v.1.15,2013-01-14 16:48:00,
2013-01-14 08:53:00,35.0,30.7,30.52,SSW,210,2.0,3.0,84,0.00,,,0.00,23,Wunderground v.1.15,2013-01-14 16:53:00,
2013-01-14 08:58:00,34.8,30.8,30.52,SSW,196,1.0,4.0,85,0.00,,,0.00,26,Wunderground v.1.15,2013-01-14 16:58:00,
2013-01-14 09:03:00,34.7,30.7,30.52,SSW,204,2.0,3.0,85,0.00,,,0.00,30,Wunderground v.1.15,2013-01-14 17:03:00,
2013-01-14 09:08:00,34.7,30.7,30.52,South,189,2.0,3.0,85,0.00,,,0.00,33,Wunderground v.1.15,2013-01-14 17:08:00,
2013-01-14 09:13:00,34.6,30.6,30.52,South,180,1.0,3.0,85,0.00,,,0.00,39,Wunderground v.1.15,2013-01-14 17:13:00,
2013-01-14 09:18:00,34.6,30.6,30.53,WSW,249,1.0,5.0,85,0.00,,,0.00,39,Wunderground v.1.15,2013-01-14 17:18:00,
2013-01-14 09:23:00,34.7,30.7,30.53,WSW,252,5.0,6.0,85,0.00,,,0.00,35,Wunderground v.1.15,2013-01-14 17:23:00,
2013-01-14 09:28:00,34.7,30.7,30.53,SW,228,4.0,6.0,85,0.00,,,0.00,42,Wunderground v.1.15,2013-01-14 17:28:00,
2013-01-14 09:33:00,34.7,30.4,30.53,West,261,3.0,6.0,84,0.00,,,0.00,49,Wunderground v.1.15,2013-01-14 17:33:00,
2013-01-14 09:38:00,34.7,30.4,30.53,West,263,5.0,6.0,84,0.00,,,0.00,54,Wunderground v.1.15,2013-01-14 17:38:00,
2013-01-14 09:43:00,34.7,30.4,30.53,WSW,241,1.0,4.0,84,0.00,,,0.00,58,Wunderground v.1.15,2013-01-14 17:43:00,
2013-01-14 09:48:00,34.8,30.8,30.53,WSW,254,0.0,4.0,85,0.00,,,0.00,63,Wunderground v.1.15,2013-01-14 17:48:00,
2013-01-14 09:53:00,34.9,30.6,30.53,WSW,237,2.0,2.0,84,0.00,,,0.00,70,Wunderground v.1.15,2013-01-14 17:53:00,
2013-01-14 09:58:00,35.1,30.8,30.53,SW,222,1.0,5.0,84,0.00,,,0.00,72,Wunderground v.1.15,2013-01-14 17:58:00,
2013-01-14 10:03:00,35.1,30.8,30.53,SSW,205,2.0,5.0,84,0.00,,,0.00,76,Wunderground v.1.15,2013-01-14 18:03:00,
2013-01-14 10:08:00,35.1,30.5,30.53,SSW,205,2.0,5.0,83,0.00,,,0.00,76,Wunderground v.1.15,2013-01-14 18:08:00,
2013-01-14 10:13:00,35.1,30.8,30.53,SSW,203,2.0,3.0,84,0.00,,,0.00,84,Wunderground v.1.15,2013-01-14 18:13:00,
2013-01-14 10:18:00,35.2,30.9,30.53,WSW,246,3.0,3.0,84,0.00,,,0.00,79,Wunderground v.1.15,2013-01-14 18:18:00,
2013-01-14 10:23:00,35.2,30.9,30.53,WSW,250,2.0,3.0,84,0.00,,,0.00,70,Wunderground v.1.15,2013-01-14 18:23:00,
2013-01-14 10:28:00,35.2,30.6,30.53,WSW,244,1.0,4.0,83,0.00,,,0.00,54,Wunderground v.1.15,2013-01-14 18:28:00,
2013-01-14 10:33:00,35.3,30.9,30.53,West,266,5.0,7.0,84,0.00,,,0.00,77,Wunderground v.1.15,2013-01-14 18:33:00,
2013-01-14 10:38:00,35.3,30.9,30.54,WSW,252,0.0,7.0,84,0.00,,,0.00,76,Wunderground v.1.15,2013-01-14 18:38:00,
2013-01-14 10:43:00,35.3,30.9,30.54,WSW,250,4.0,6.0,84,0.00,,,0.00,86,Wunderground v.1.15,2013-01-14 18:43:00,
2013-01-14 10:48:00,35.3,30.9,30.54,SW,229,2.0,6.0,84,0.00,,,0.00,95,Wunderground v.1.15,2013-01-14 18:48:00,
2013-01-14 10:53:00,35.3,30.9,30.53,West,265,0.0,4.0,84,0.00,,,0.00,97,Wunderground v.1.15,2013-01-14 18:53:00,
2013-01-14 10:58:00,35.5,31.4,30.53,SW,219,1.0,6.0,85,0.00,,,0.00,100,Wunderground v.1.15,2013-01-14 18:58:00,
2013-01-14 11:03:00,35.8,31.4,30.53,WSW,253,2.0,4.0,84,0.00,,,0.00,93,Wunderground v.1.15,2013-01-14 19:03:00,
2013-01-14 11:08:00,35.9,31.2,30.53,SSW,206,1.0,5.0,83,0.00,,,0.00,90,Wunderground v.1.15,2013-01-14 19:08:00,
2013-01-14 11:13:00,35.6,30.9,30.53,SSE,155,1.0,5.0,83,0.00,,,0.00,98,Wunderground v.1.15,2013-01-14 19:13:00,
2013-01-14 11:18:00,35.6,30.9,30.53,SSE,165,1.0,5.0,83,0.00,,,0.00,104,Wunderground v.1.15,2013-01-14 19:18:00,
2013-01-14 11:23:00,35.6,30.9,30.53,South,184,2.0,5.0,83,0.00,,,0.00,93,Wunderground v.1.15,2013-01-14 19:23:00,
2013-01-14 11:28:00,35.7,30.7,30.52,SW,221,2.0,7.0,82,0.00,,,0.00,104,Wunderground v.1.15,2013-01-14 19:28:00,
2013-01-14 11:33:00,35.6,30.6,30.52,WSW,240,2.0,5.0,82,0.00,,,0.00,107,Wunderground v.1.15,2013-01-14 19:33:00,
2013-01-14 11:37:00,35.8,30.8,30.52,WSW,255,4.0,5.0,82,0.00,,,0.00,104,Wunderground v.1.15,2013-01-14 19:37:00,
2013-01-14 11:42:00,35.8,30.5,30.52,West,262,3.0,8.0,81,0.00,,,0.00,114,Wunderground v.1.15,2013-01-14 19:42:00,
2013-01-14 11:48:00,35.9,30.9,30.52,WSW,248,3.0,8.0,82,0.00,,,0.00,116,Wunderground v.1.15,2013-01-14 19:48:00,
2013-01-14 11:53:00,36.0,30.7,30.52,WSW,246,1.0,5.0,81,0.00,,,0.00,111,Wunderground v.1.15,2013-01-14 19:53:00,
2013-01-14 11:58:00,36.1,31.1,30.52,WSW,253,3.0,5.0,82,0.00,,,0.00,109,Wunderground v.1.15,2013-01-14 19:58:00,
2013-01-14 12:03:00,36.1,30.8,30.52,West,259,4.0,6.0,81,0.00,,,0.00,104,Wunderground v.1.15,2013-01-14 20:03:00,
2013-01-14 12:07:00,36.2,30.9,30.53,WSW,252,3.0,6.0,81,0.00,,,0.00,104,Wunderground v.1.15,2013-01-14 20:07:00,
2013-01-14 12:12:00,36.2,30.6,30.53,WSW,254,1.0,5.0,80,0.00,,,0.00,105,Wunderground v.1.15,2013-01-14 20:12:00,
2013-01-14 12:17:00,36.1,30.5,30.53,WSW,257,1.0,5.0,80,0.00,,,0.00,105,Wunderground v.1.15,2013-01-14 20:17:00,
2013-01-14 12:22:00,36.4,31.1,30.53,WSW,257,2.0,3.0,81,0.00,,,0.00,100,Wunderground v.1.15,2013-01-14 20:22:00,
2013-01-14 12:27:00,36.3,30.4,30.52,WSW,257,2.0,5.0,79,0.00,,,0.00,97,Wunderground v.1.15,2013-01-14 20:27:00,
2013-01-14 12:32:00,36.5,30.3,30.53,WSW,257,1.0,4.0,78,0.00,,,0.00,114,Wunderground v.1.15,2013-01-14 20:32:00,
2013-01-14 12:37:00,36.4,30.2,30.53,WSW,257,1.0,4.0,78,0.00,,,0.00,116,Wunderground v.1.15,2013-01-14 20:37:00,
2013-01-14 12:42:00,36.8,30.6,30.53,WSW,246,2.0,4.0,78,0.00,,,0.00,116,Wunderground v.1.15,2013-01-14 20:42:00,
2013-01-14 12:47:00,36.7,30.5,30.53,WSW,246,2.0,4.0,78,0.00,,,0.00,118,Wunderground v.1.15,2013-01-14 20:47:00,
2013-01-14 12:52:00,36.8,30.6,30.53,WSW,248,2.0,4.0,78,0.00,,,0.00,116,Wunderground v.1.15,2013-01-14 20:52:00,
2013-01-14 12:57:00,36.5,30.3,30.52,WSW,248,2.0,4.0,78,0.00,,,0.00,120,Wunderground v.1.15,2013-01-14 20:57:00,
2013-01-14 13:02:00,36.8,30.9,30.52,WSW,242,4.0,4.0,79,0.00,,,0.00,118,Wunderground v.1.15,2013-01-14 21:02:00,
2013-01-14 13:07:00,36.8,30.6,30.52,WSW,240,0.0,4.0,78,0.00,,,0.00,125,Wunderground v.1.15,2013-01-14 21:07:00,
2013-01-14 13:12:00,36.9,30.7,30.52,WSW,240,0.0,2.0,78,0.00,,,0.00,120,Wunderground v.1.15,2013-01-14 21:12:00,
2013-01-14 13:17:00,36.9,30.7,30.52,WSW,240,1.0,3.0,78,0.00,,,0.00,127,Wunderground v.1.15,2013-01-14 21:17:00,
2013-01-14 13:22:00,36.8,30.9,30.52,WSW,240,1.0,2.0,79,0.00,,,0.00,123,Wunderground v.1.15,2013-01-14 21:22:00,
2013-01-14 13:27:00,36.9,30.7,30.52,WSW,252,2.0,4.0,78,0.00,,,0.00,123,Wunderground v.1.15,2013-01-14 21:27:00,
2013-01-14 13:32:00,37.1,30.9,30.52,WSW,240,1.0,3.0,78,0.00,,,0.00,118,Wunderground v.1.15,2013-01-14 21:32:00,
2013-01-14 13:37:00,37.2,30.7,30.52,WSW,242,1.0,3.0,77,0.00,,,0.00,114,Wunderground v.1.15,2013-01-14 21:37:00,
2013-01-14 13:42:00,37.5,30.9,30.52,WSW,248,2.0,4.0,77,0.00,,,0.00,113,Wunderground v.1.15,2013-01-14 21:42:00,
2013-01-14 13:47:00,37.3,30.7,30.52,SW,236,2.0,5.0,77,0.00,,,0.00,107,Wunderground v.1.15,2013-01-14 21:47:00,
2013-01-14 13:52:00,37.4,30.8,30.52,WSW,237,0.0,4.0,77,0.00,,,0.00,102,Wunderground v.1.15,2013-01-14 21:52:00,
2013-01-14 13:57:00,37.2,30.3,30.52,WSW,257,3.0,6.0,76,0.00,,,0.00,95,Wunderground v.1.15,2013-01-14 21:57:00,
2013-01-14 14:02:00,37.3,30.7,30.52,SSW,207,2.0,2.0,77,0.00,,,0.00,91,Wunderground v.1.15,2013-01-14 22:02:00,
2013-01-14 14:07:00,37.7,31.1,30.53,SW,234,3.0,4.0,77,0.00,,,0.00,90,Wunderground v.1.15,2013-01-14 22:07:00,
2013-01-14 14:12:00,37.5,30.9,30.52,West,270,0.0,2.0,77,0.00,,,0.00,91,Wunderground v.1.15,2013-01-14 22:12:00,
2013-01-14 14:17:00,37.5,30.6,30.52,West,270,2.0,3.0,76,0.00,,,0.00,91,Wunderground v.1.15,2013-01-14 22:17:00,
2013-01-14 14:22:00,37.9,30.4,30.53,SW,229,4.0,5.0,74,0.00,,,0.00,90,Wunderground v.1.15,2013-01-14 22:22:00,
2013-01-14 14:27:00,37.5,30.3,30.53,WSW,243,0.0,5.0,75,0.00,,,0.00,88,Wunderground v.1.15,2013-01-14 22:27:00,
2013-01-14 14:32:00,37.7,30.5,30.53,West,263,2.0,4.0,75,0.00,,,0.00,90,Wunderground v.1.15,2013-01-14 22:32:00,
2013-01-14 14:37:00,37.7,30.5,30.53,South,173,1.0,4.0,75,0.00,,,0.00,86,Wunderground v.1.15,2013-01-14 22:37:00,
2013-01-14 14:42:00,37.7,30.8,30.53,WSW,247,2.0,3.0,76,0.00,,,0.00,86,Wunderground v.1.15,2013-01-14 22:42:00,
2013-01-14 14:47:00,37.9,30.7,30.53,SSW,198,2.0,3.0,75,0.00,,,0.00,86,Wunderground v.1.15,2013-01-14 22:47:00,
2013-01-14 14:52:00,37.7,30.5,30.53,South,187,1.0,3.0,75,0.00,,,0.00,86,Wunderground v.1.15,2013-01-14 22:52:00,
2013-01-14 14:57:00,38.0,30.8,30.53,SW,225,4.0,5.0,75,0.00,,,0.00,69,Wunderground v.1.15,2013-01-14 22:57:00,
2013-01-14 15:02:00,37.9,30.7,30.53,SSW,212,2.0,4.0,75,0.00,,,0.00,60,Wunderground v.1.15,2013-01-14 23:02:00,
2013-01-14 15:07:00,37.9,30.4,30.54,WSW,250,2.0,4.0,74,0.00,,,0.00,58,Wunderground v.1.15,2013-01-14 23:07:00,
2013-01-14 15:12:00,38.0,30.8,30.54,SSW,194,2.0,3.0,75,0.00,,,0.00,63,Wunderground v.1.15,2013-01-14 23:12:00,
2013-01-14 15:17:00,37.9,30.7,30.54,SSW,194,1.0,3.0,75,0.00,,,0.00,74,Wunderground v.1.15,2013-01-14 23:17:00,
2013-01-14 15:22:00,38.1,30.5,30.54,WSW,237,3.0,4.0,74,0.00,,,0.00,74,Wunderground v.1.15,2013-01-14 23:22:00,
2013-01-14 15:27:00,38.1,30.9,30.54,South,191,3.0,4.0,75,0.00,,,0.00,77,Wunderground v.1.15,2013-01-14 23:27:00,
2013-01-14 15:32:00,38.2,30.6,30.54,WSW,240,2.0,4.0,74,0.00,,,0.00,84,Wunderground v.1.15,2013-01-14 23:32:00,
2013-01-14 15:37:00,38.3,30.7,30.54,SW,231,2.0,4.0,74,0.00,,,0.00,84,Wunderground v.1.15,2013-01-14 23:37:00,
2013-01-14 15:42:00,38.3,30.7,30.54,SW,234,3.0,5.0,74,0.00,,,0.00,84,Wunderground v.1.15,2013-01-14 23:42:00,
2013-01-14 15:47:00,38.3,30.7,30.54,WSW,242,0.0,5.0,74,0.00,,,0.00,88,Wunderground v.1.15,2013-01-14 23:47:00,
2013-01-14 15:52:00,38.3,30.7,30.53,SSW,204,1.0,4.0,74,0.00,,,0.00,88,Wunderground v.1.15,2013-01-14 23:52:00,
2013-01-14 15:57:00,38.6,31.0,30.53,SSW,202,3.0,4.0,74,0.00,,,0.00,72,Wunderground v.1.15,2013-01-14 23:57:00,
2013-01-14 16:02:00,38.5,30.6,30.53,WSW,239,2.0,4.0,73,0.00,,,0.00,54,Wunderground v.1.15,2013-01-15 00:02:00,
2013-01-14 16:07:00,38.3,30.7,30.53,SW,217,5.0,5.0,74,0.00,,,0.00,47,Wunderground v.1.15,2013-01-15 00:07:00,
2013-01-14 16:12:00,38.3,30.7,30.53,WSW,256,3.0,6.0,74,0.00,,,0.00,42,Wunderground v.1.15,2013-01-15 00:12:00,
2013-01-14 16:17:00,38.2,30.6,30.53,SW,215,1.0,6.0,74,0.00,,,0.00,35,Wunderground v.1.15,2013-01-15 00:17:00,
2013-01-14 16:22:00,38.2,31.0,30.53,SW,232,1.0,2.0,75,0.00,,,0.00,26,Wunderground v.1.15,2013-01-15 00:22:00,
2013-01-14 16:27:00,38.2,31.0,30.53,SSW,207,1.0,2.0,75,0.00,,,0.00,16,Wunderground v.1.15,2013-01-15 00:27:00,
2013-01-14 16:32:00,38.1,30.5,30.53,WSW,238,3.0,3.0,74,0.00,,,0.00,11,Wunderground v.1.15,2013-01-15 00:32:00,
2013-01-14 16:37:00,38.1,30.5,30.53,SSW,212,0.0,4.0,74,0.00,,,0.00,7,Wunderground v.1.15,2013-01-15 00:37:00,
2013-01-14 16:42:00,38.0,30.4,30.54,WSW,243,3.0,5.0,74,0.00,,,0.00,0,Wunderground v.1.15,2013-01-15 00:42:00,
2013-01-14 16:47:00,38.0,30.4,30.54,WSW,243,2.0,5.0,74,0.00,,,0.00,0,Wunderground v.1.15,2013-01-15 00:47:00,
2013-01-14 16:52:00,37.9,30.4,30.54,SW,225,3.0,4.0,74,0.00,,,0.00,0,Wunderground v.1.15,2013-01-15 00:52:00,
2013-01-14 16:57:00,37.9,30.7,30.54,SSW,210,0.0,4.0,75,0.00,,,0.00,0,Wunderground v.1.15,2013-01-15 00:57:00,
2013-01-14 17:02:00,37.9,30.7,30.54,SSW,213,1.0,4.0,75,0.00,,,0.00,0,Wunderground v.1.15,2013-01-15 01:02:00,
2013-01-14 17:07:00,37.9,30.7,30.54,SW,232,2.0,4.0,75,0.00,,,0.00,0,Wunderground v.1.15,2013-01-15 01:07:00,
2013-01-14 17:12:00,37.9,30.7,30.55,SW,217,0.0,2.0,75,0.00,,,0.00,0,Wunderground v.1.15,2013-01-15 01:12:00,
2013-01-14 17:17:00,37.9,30.7,30.55,SSW,205,2.0,3.0,75,0.00,,,0.00,0,Wunderground v.1.15,2013-01-15 01:17:00,
2013-01-14 17:22:00,37.9,30.7,30.55,SSW,211,1.0,3.0,75,0.00,,,0.00,0,Wunderground v.1.15,2013-01-15 01:22:00,
2013-01-14 17:27:00,37.8,30.6,30.55,SSW,211,1.0,3.0,75,0.00,,,0.00,0,Wunderground v.1.15,2013-01-15 01:27:00,
2013-01-14 17:32:00,37.8,30.6,30.54,SSW,210,1.0,4.0,75,0.00,,,0.00,0,Wunderground v.1.15,2013-01-15 01:32:00,
2013-01-14 17:37:00,37.8,30.6,30.54,SSW,212,1.0,4.0,75,0.00,,,0.00,0,Wunderground v.1.15,2013-01-15 01:37:00,
2013-01-14 17:42:00,37.8,30.6,30.54,SW,228,1.0,4.0,75,0.00,,,0.00,0,Wunderground v.1.15,2013-01-15 01:42:00,
2013-01-14 17:47:00,37.8,30.3,30.54,SW,234,0.0,4.0,74,0.00,,,0.00,0,Wunderground v.1.15,2013-01-15 01:47:00,
2013-01-14 17:52:00,37.8,30.6,30.54,SW,229,0.0,2.0,75,0.00,,,0.00,0,Wunderground v.1.15,2013-01-15 01:52:00,
2013-01-14 17:57:00,37.6,30.4,30.53,SW,229,1.0,2.0,75,0.00,,,0.00,0,Wunderground v.1.15,2013-01-15 01:57:00,
2013-01-14 18:02:00,37.7,31.1,30.53,WSW,240,3.0,5.0,77,0.00,,,0.00,0,Wunderground v.1.15,2013-01-15 02:02:00,
2013-01-14 18:07:00,37.7,30.5,30.54,WSW,250,2.0,5.0,75,0.00,,,0.00,0,Wunderground v.1.15,2013-01-15 02:07:00,
2013-01-14 18:12:00,37.6,30.4,30.54,WSW,250,2.0,2.0,75,0.00,,,0.00,0,Wunderground v.1.15,2013-01-15 02:12:00,
2013-01-14 18:17:00,37.6,30.1,30.54,WSW,250,0.0,2.0,74,0.00,,,0.00,0,Wunderground v.1.15,2013-01-15 02:17:00,
2013-01-14 18:22:00,37.5,30.0,30.54,WSW,250,0.0,0.0,74,0.00,,,0.00,0,Wunderground v.1.15,2013-01-15 02:22:00,
2013-01-14 18:27:00,37.5,30.3,30.55,WSW,250,0.0,2.0,75,0.00,,,0.00,0,Wunderground v.1.15,2013-01-15 02:27:00,
2013-01-14 18:32:00,37.4,30.2,30.55,WSW,250,0.0,2.0,75,0.00,,,0.00,0,Wunderground v.1.15,2013-01-15 02:32:00,
2013-01-14 18:37:00,37.4,30.2,30.55,WSW,253,0.0,3.0,75,0.00,,,0.00,0,Wunderground v.1.15,2013-01-15 02:37:00,
2013-01-14 18:42:00,37.4,30.2,30.55,WSW,253,0.0,1.0,75,0.00,,,0.00,0,Wunderground v.1.15,2013-01-15 02:42:00,
2013-01-14 18:47:00,37.3,30.1,30.55,WSW,253,0.0,2.0,75,0.00,,,0.00,0,Wunderground v.1.15,2013-01-15 02:47:00,
2013-01-14 18:52:00,37.3,29.8,30.55,WSW,254,0.0,0.0,74,0.00,,,0.00,0,Wunderground v.1.15,2013-01-15 02:52:00,
2013-01-14 18:57:00,37.2,30.0,30.56,WSW,253,0.0,2.0,75,0.00,,,0.00,0,Wunderground v.1.15,2013-01-15 02:57:00,
2013-01-14 19:02:00,37.1,29.9,30.56,WSW,254,0.0,2.0,75,0.00,,,0.00,0,Wunderground v.1.15,2013-01-15 03:02:00,
2013-01-14 19:07:00,37.1,30.2,30.56,West,273,1.0,3.0,76,0.00,,,0.00,0,Wunderground v.1.15,2013-01-15 03:07:00,
2013-01-14 19:12:00,37.1,30.6,30.56,West,275,0.0,3.0,77,0.00,,,0.00,0,Wunderground v.1.15,2013-01-15 03:12:00,
2013-01-14 19:17:00,37.1,30.6,30.56,West,279,1.0,3.0,77,0.00,,,0.00,0,Wunderground v.1.15,2013-01-15 03:17:00,
2013-01-14 19:22:00,37.2,31.0,30.56,NW,311,2.0,3.0,78,0.00,,,0.00,0,Wunderground v.1.15,2013-01-15 03:22:00,
2013-01-14 19:27:00,37.3,31.4,30.57,WNW,303,2.0,4.0,79,0.00,,,0.00,0,Wunderground v.1.15,2013-01-15 03:27:00,
2013-01-14 19:32:00,37.4,31.5,30.57,WNW,300,0.0,2.0,79,0.00,,,0.00,0,Wunderground v.1.15,2013-01-15 03:32:00,
2013-01-14 19:37:00,37.4,31.5,30.56,WNW,296,1.0,3.0,79,0.00,,,0.00,0,Wunderground v.1.15,2013-01-15 03:37:00,
2013-01-14 19:42:00,37.4,31.5,30.57,NW,309,1.0,3.0,79,0.00,,,0.00,0,Wunderground v.1.15,2013-01-15 03:42:00,
2013-01-14 19:47:00,37.5,31.9,30.57,WNW,303,0.0,3.0,80,0.00,,,0.00,0,Wunderground v.1.15,2013-01-15 03:47:00,
2013-01-14 19:52:00,37.5,31.9,30.57,WNW,302,0.0,2.0,80,0.00,,,0.00,0,Wunderground v.1.15,2013-01-15 03:52:00,
2013-01-14 19:57:00,37.5,31.9,30.57,WNW,302,1.0,2.0,80,0.00,,,0.00,0,Wunderground v.1.15,2013-01-15 03:57:00,
2013-01-14 20:02:00,37.5,31.9,30.57,WNW,302,0.0,1.0,80,0.00,,,0.00,0,Wunderground v.1.15,2013-01-15 04:02:00,
2013-01-14 20:07:00,37.6,32.3,30.57,WNW,302,1.0,2.0,81,0.00,,,0.00,0,Wunderground v.1.15,2013-01-15 04:07:00,
2013-01-14 20:12:00,37.7,32.4,30.57,NW,304,2.0,2.0,81,0.00,,,0.00,0,Wunderground v.1.15,2013-01-15 04:12:00,
2013-01-14 20:17:00,37.7,32.1,30.57,WNW,302,0.0,2.0,80,0.00,,,0.00,0,Wunderground v.1.15,2013-01-15 04:17:00,
2013-01-14 20:22:00,37.7,32.1,30.58,NW,304,0.0,3.0,80,0.00,,,0.00,0,Wunderground v.1.15,2013-01-15 04:22:00,
2013-01-14 20:27:00,37.7,32.1,30.58,NW,306,0.0,3.0,80,0.00,,,0.00,0,Wunderground v.1.15,2013-01-15 04:27:00,
2013-01-14 20:32:00,37.8,32.2,30.58,NW,306,0.0,1.0,80,0.00,,,0.00,0,Wunderground v.1.15,2013-01-15 04:32:00,
2013-01-14 20:37:00,37.8,32.2,30.58,NW,306,0.0,2.0,80,0.00,,,0.00,0,Wunderground v.1.15,2013-01-15 04:37:00,
2013-01-14 20:42:00,37.8,32.2,30.58,NW,306,0.0,3.0,80,0.00,,,0.00,0,Wunderground v.1.15,2013-01-15 04:42:00,
2013-01-14 20:47:00,37.9,32.0,30.58,NW,306,1.0,3.0,79,0.00,,,0.00,0,Wunderground v.1.15,2013-01-15 04:47:00,
2013-01-14 20:52:00,37.9,32.0,30.58,NW,306,1.0,2.0,79,0.00,,,0.00,0,Wunderground v.1.15,2013-01-15 04:52:00,
2013-01-14 20:57:00,37.9,32.0,30.58,NW,306,1.0,2.0,79,0.00,,,0.00,0,Wunderground v.1.15,2013-01-15 04:57:00,
2013-01-14 21:01:00,37.8,31.9,30.58,NW,306,0.0,0.0,79,0.00,,,0.00,0,Wunderground v.1.15,2013-01-15 05:01:00,
2013-01-14 21:06:00,37.8,32.2,30.58,NW,306,0.0,0.0,80,0.00,,,0.00,0,Wunderground v.1.15,2013-01-15 05:06:00,
2013-01-14 21:11:00,37.8,31.9,30.58,NW,306,0.0,0.0,79,0.00,,,0.00,0,Wunderground v.1.15,2013-01-15 05:11:00,
2013-01-14 21:16:00,37.8,32.2,30.58,NW,306,0.0,1.0,80,0.00,,,0.00,0,Wunderground v.1.15,2013-01-15 05:16:00,
2013-01-14 21:21:00,37.8,32.2,30.57,NW,306,0.0,0.0,80,0.00,,,0.00,0,Wunderground v.1.15,2013-01-15 05:21:00,
2013-01-14 21:26:00,37.8,32.2,30.57,NW,306,1.0,1.0,80,0.00,,,0.00,0,Wunderground v.1.15,2013-01-15 05:26:00,
2013-01-14 21:31:00,37.7,32.4,30.57,SSW,209,1.0,1.0,81,0.00,,,0.00,0,Wunderground v.1.15,2013-01-15 05:31:00,
2013-01-14 21:36:00,37.6,32.3,30.58,SSW,205,0.0,2.0,81,0.00,,,0.00,0,Wunderground v.1.15,2013-01-15 05:36:00,
2013-01-14 21:41:00,37.6,32.3,30.58,SSW,205,0.0,0.0,81,0.00,,,0.00,0,Wunderground v.1.15,2013-01-15 05:41:00,
2013-01-14 21:46:00,37.6,32.3,30.58,SSW,205,0.0,1.0,81,0.00,,,0.00,0,Wunderground v.1.15,2013-01-15 05:46:00,
2013-01-14 21:51:00,37.5,31.9,30.58,SSW,205,0.0,1.0,80,0.00,,,0.00,0,Wunderground v.1.15,2013-01-15 05:51:00,
2013-01-14 21:56:00,37.5,31.6,30.58,SSW,205,0.0,2.0,79,0.00,,,0.00,0,Wunderground v.1.15,2013-01-15 05:56:00,
2013-01-14 22:01:00,37.5,31.6,30.58,SSW,205,0.0,0.0,79,0.00,,,0.00,0,Wunderground v.1.15,2013-01-15 06:01:00,
2013-01-14 22:06:00,37.5,31.6,30.58,SSW,205,0.0,1.0,79,0.00,,,0.00,0,Wunderground v.1.15,2013-01-15 06:06:00,
2013-01-14 22:11:00,37.5,31.6,30.58,SSW,205,0.0,1.0,79,0.00,,,0.00,0,Wunderground v.1.15,2013-01-15 06:11:00,
2013-01-14 22:16:00,37.5,31.6,30.58,SSW,205,1.0,2.0,79,0.00,,,0.00,0,Wunderground v.1.15,2013-01-15 06:16:00,
2013-01-14 22:21:00,37.5,31.6,30.58,SSW,205,0.0,0.0,79,0.00,,,0.00,0,Wunderground v.1.15,2013-01-15 06:21:00,
2013-01-14 22:26:00,37.5,31.6,30.58,SSW,203,0.0,2.0,79,0.00,,,0.00,0,Wunderground v.1.15,2013-01-15 06:26:00,
2013-01-14 22:31:00,37.5,31.6,30.58,SSW,204,1.0,1.0,79,0.00,,,0.00,0,Wunderground v.1.15,2013-01-15 06:31:00,
2013-01-14 22:36:00,37.6,32.0,30.58,SSW,203,0.0,2.0,80,0.00,,,0.00,0,Wunderground v.1.15,2013-01-15 06:36:00,
2013-01-14 22:41:00,37.6,32.3,30.58,SSW,198,0.0,1.0,81,0.00,,,0.00,0,Wunderground v.1.15,2013-01-15 06:41:00,
2013-01-14 22:46:00,37.6,32.6,30.58,South,191,0.0,2.0,82,0.00,,,0.00,0,Wunderground v.1.15,2013-01-15 06:46:00,
2013-01-14 22:51:00,37.6,32.6,30.58,South,191,0.0,1.0,82,0.00,,,0.00,0,Wunderground v.1.15,2013-01-15 06:51:00,
2013-01-14 22:56:00,37.5,32.5,30.59,South,190,1.0,2.0,82,0.00,,,0.00,0,Wunderground v.1.15,2013-01-15 06:56:00,
2013-01-14 23:01:00,37.5,32.8,30.59,South,184,0.0,1.0,83,0.00,,,0.00,0,Wunderground v.1.15,2013-01-15 07:01:00,
2013-01-14 23:06:00,37.5,32.8,30.59,SSE,167,0.0,2.0,83,0.00,,,0.00,0,Wunderground v.1.15,2013-01-15 07:06:00,
2013-01-14 23:11:00,37.4,33.0,30.59,SSE,167,1.0,1.0,84,0.00,,,0.00,0,Wunderground v.1.15,2013-01-15 07:11:00,
2013-01-14 23:16:00,37.4,33.0,30.59,SSE,160,0.0,2.0,84,0.00,,,0.00,0,Wunderground v.1.15,2013-01-15 07:16:00,
2013-01-14 23:21:00,37.4,33.0,30.59,SSE,153,0.0,2.0,84,0.00,,,0.00,0,Wunderground v.1.15,2013-01-15 07:21:00,
2013-01-14 23:26:00,37.3,32.9,30.59,SSE,152,0.0,2.0,84,0.00,,,0.00,0,Wunderground v.1.15,2013-01-15 07:26:00,
2013-01-14 23:31:00,37.3,32.9,30.59,SSE,152,0.0,0.0,84,0.00,,,0.00,0,Wunderground v.1.15,2013-01-15 07:31:00,
2013-01-14 23:36:00,37.3,32.9,30.59,SSE,152,0.0,2.0,84,0.00,,,0.00,0,Wunderground v.1.15,2013-01-15 07:36:00,
2013-01-14 23:41:00,37.3,32.9,30.59,SSE,152,0.0,0.0,84,0.00,,,0.00,0,Wunderground v.1.15,2013-01-15 07:41:00,
2013-01-14 23:46:00,37.2,32.8,30.59,SSE,152,0.0,1.0,84,0.00,,,0.00,0,Wunderground v.1.15,2013-01-15 07:46:00,
2013-01-14 23:51:00,37.2,32.8,30.59,SSE,152,0.0,0.0,84,0.00,,,0.00,0,Wunderground v.1.15,2013-01-15 07:51:00,
2013-01-14 23:56:00,37.1,33.0,30.59,SSE,152,0.0,0.0,85,0.00,,,0.00,0,Wunderground v.1.15,2013-01-15 07:56:00,